Hourly Data Report for April 10, 2016

All times are specified in Local Standard Time (LST). Add 1 hour to adjust for Daylight Saving Time where and when it is observed.

EMERSON AUTO
MANITOBA

49°00'00.000" N
97°14'15.000" W
242.00 m
5020881
71560
WEX

Download Data

Hourly Data (April 2016)
Hourly Data Report for April 10, 2016
Temp Definition
°C
Dew Point Temp Definition
°C
Rel Hum Definition
%
Wind Dir Definition
10's deg

Wind Spd Definition
km/h
Visibility Definition
km
Stn Press Definition
kPa
Hmdx Definition


Wind Chill Definition


Weather Definition


TIME
00:00 2.5 -5.5 56 20 22   96.81     LegendNANA
01:00 3.0 -1.3 73 29 26   96.82     LegendNANA
02:00 2.0 -2.1 74 29 25   96.81     LegendNANA
03:00 1.4 -2.4 76 28 37   96.83     LegendNANA
04:00 1.1 -2.4 78 29 32   96.89     LegendNANA
05:00 0.7 -3.0 76 30 36   96.98     LegendNANA
06:00 0.2 -3.8 75 31 39   97.06     LegendNANA
07:00 -0.3 -3.8 77 31 34   97.14   -7 LegendNANA
08:00 -0.9 -4.0 79 32 38   97.18   -8 LegendNANA
09:00 -1.1 -5.9 70 32 46   97.25   -9 LegendNANA
10:00 -1.5 -5.3 75 32 43   97.36   -10 LegendNANA
11:00 -1.5 -4.3 81 32 43   97.44   -10 LegendNANA
12:00 -1.0 -4.1 80 32 41   97.49   -9 LegendNANA
13:00 -0.9 -2.6 88 32 39   97.58   -9 LegendNANA
14:00 -0.3 -2.9 83 33 40   97.68   -8 LegendNANA
15:00 -0.2 -3.4 79 33 44   97.76   -8 LegendNANA
16:00 -0.1 -4.2 74 33 41   97.83   -8 LegendNANA
17:00 -0.8 -2.7 87 33 37   97.94   -8 LegendNANA
18:00 -0.9 -3.5 83 34 41   98.00   -9 LegendNANA
19:00 -1.5 -5.2 76 33 36   98.11   -9 LegendNANA
20:00 -2.4 -4.2 87 33 35   98.21   -10 LegendNANA
21:00 -3.0 -5.1 86 33 32   98.30   -11 LegendNANA
22:00 -3.5 -5.6 85 33 37   98.34   -12 LegendNANA
23:00 -4.3 -6.4 85 34 35   98.41   -13 LegendNANA

Notes on Data Quality.

Legend

  • E = Estimated
  • M = Missing
  • NA = Not Available
  • ‡ = Partner data that is not subject to review by the National Climate Archives
Date modified: